[[{"header":{"parameterUnit":"m.s-1","parameterCategory":1,"la1":30.2991,"la2":30.254,"lo1":-89.0895,"lo2":-89.0444,"dy":0.0017,"dx":0.0017,"nx":28,"ny":28,"refTime":"2024-07-15T21:00:00:Z","depth":0,"parameterNumber":2,"parameterNumberName":"U-component_of_WINDS"},"data":[0,0,0,0,0,0,0,0,0,0,0,0,0,0,0,0,0,0,0,0,0,0,0,0,0,0,0,0,0,0,0,0,0,0,0,0,0,0,0,0,0,0,0,0,0,0,0,0,0,0,0,0,0,0,0,0,0,0,1.5852,1.5853,0,1.5912,1.5913,1.5914,1.5887,1.5886,1.5884,1.5883,1.5948,1.5951,1.5954,0,0,0,0,0,0,0,0,0,0,0,0,0,1.5716,1.5718,1.5852,1.5853,1.5854,1.5912,1.5913,1.5914,1.5888,1.5886,1.5884,1.5882,1.5947,1.595,1.5954,0,0,0,0,0,0,0,0,0,0,0,0,0,1.5775,1.5719,1.5852,1.5848,1.5848,1.5912,1.5913,1.5914,1.5888,1.5886,1.5884,1.5882,1.5945,1.595,1.5955,1.6028,0,0,1.5969,1.5971,0,0,0,0,0,0,0,0,1.5772,1.5781,1.5848,1.5848,1.5848,1.589,1.5889,1.5952,1.5889,1.5873,1.5883,1.588,1.5931,1.5936,1.5952,1.6031,1.6033,1.5969,1.5972,1.5974,1.5975,0,0,0,0,0,0,0,1.5768,1.5778,1.5876,1.5849,1.5849,1.5843,1.5849,1.59,1.5914,1.5874,1.5872,1.588,1.593,1.5948,1.5954,1.6034,1.5969,1.5973,1.5976,1.5978,1.6172,1.6175,0,0,0,0,0,0,1.5764,1.5775,1.5874,1.5878,1.5804,1.5847,1.5854,1.5879,1.5913,1.5916,1.5881,1.5878,1.5941,1.5948,1.5956,1.6042,1.5974,1.5978,1.5981,1.617,1.6173,1.6175,0,0,0,0,0,0,1.5761,1.5773,1.5872,1.5826,1.5838,1.5852,1.588,1.5881,1.5899,1.5918,1.5921,1.5897,1.594,1.5949,1.6009,1.6043,1.598,1.5985,1.6167,1.6171,1.6174,1.6215,0,0,0,0,0,0,1.5757,1.5772,1.58,1.5827,1.584,1.5924,1.5882,1.5884,1.5907,1.5903,1.5934,1.5937,1.5939,1.6002,1.6014,1.6049,1.5988,1.6164,1.6169,1.6173,1.621,1.6219,1.6227,0,0,0,0,0,1.5752,1.581,1.5801,1.5814,1.5875,1.5926,1.5934,1.5934,1.591,1.5938,1.5949,1.5936,1.6038,1.6009,1.6021,1.6058,1.6162,1.6167,1.6173,1.6207,1.6217,1.6227,0,0,0,0,0,0,1.5789,1.5814,1.5804,1.5873,1.5897,1.5921,1.5957,1.5946,1.5979,1.5974,1.5974,1.5981,1.6042,1.6057,1.6023,1.6129,1.6096,1.6104,1.6118,1.6128,1.6136,1.6131,1.5992,0,0,0,0,0,1.5805,1.5843,1.5863,1.5921,1.5934,1.5943,1.5965,1.5963,1.5989,1.5999,1.6016,1.6042,1.608,1.6105,1.6141,1.6212,1.6218,1.6244,1.6252,1.6259,1.6266,1.6302,1.6313,1.6193,1.6193,1.6193,0,0,1.5839,1.5857,1.5881,1.5929,1.5948,1.5987,1.5952,1.5996,1.6025,1.6007,1.6063,1.6076,1.6105,1.617,1.6199,1.6184,1.63,1.6265,1.6271,1.6274,1.6308,1.632,1.633,1.6197,1.6196,1.6195,0,0,1.5919,1.5938,1.5987,1.6006,1.6033,1.6039,1.6051,1.6076,1.6083,1.6139,1.6125,1.616,1.6226,1.6246,1.6265,1.6351,1.6339,1.6363,1.6406,1.6441,1.6451,1.6459,1.6488,1.6498,1.637,1.637,1.637,0,1.5958,1.6016,1.6014,1.6058,1.6078,1.6061,1.6111,1.6129,1.6168,1.6183,1.6164,1.6244,1.6263,1.6331,1.6352,1.6368,1.6381,1.6359,1.6449,1.6458,1.6465,1.6493,1.6504,1.6373,1.6372,1.6372,1.6372,0,1.6061,1.6102,1.6138,1.6173,1.6198,1.6245,1.6249,1.6275,1.627,1.6277,1.6334,1.6355,1.6394,1.641,1.6407,1.6477,1.6466,1.6449,1.6415,1.6479,1.6505,1.6516,1.6376,1.6375,1.6375,1.6374,0,0,1.6168,1.62,1.6213,1.6228,1.6256,1.6287,1.6333,1.6369,1.639,1.6417,1.6454,1.6509,1.6491,1.6513,1.6512,1.6543,1.6607,1.6521,1.6522,1.6535,1.6684,1.6696,1.6708,1.6599,1.6601,1.6602,1.6681,0,1.625,1.6328,1.6326,1.6398,1.6434,1.6417,1.6456,1.6478,1.6485,1.6517,1.6526,1.6564,1.6539,1.6552,1.6582,1.6593,1.6636,1.6587,1.6633,1.6635,1.6625,1.6722,1.6736,1.6808,1.6691,1.6693,1.6694,0,1.6356,1.6384,1.6459,1.6479,1.6495,1.653,1.6561,1.6592,1.6616,1.6619,1.6642,1.6634,1.668,1.6645,1.6707,1.6673,1.6692,1.67,1.6703,1.6707,1.6668,1.6727,1.6832,1.6842,1.671,1.6709,1.6708,0,1.6424,1.6481,1.6533,1.6546,1.6572,1.6596,1.6608,1.6629,1.665,1.6678,1.6692,1.6725,1.6744,1.677,1.6771,1.6746,1.6833,1.6799,1.6837,1.6836,1.6855,1.6854,1.6963,1.6869,1.6869,1.6869,1.6869,0,1.6515,1.6562,1.6563,1.6595,1.6646,1.6643,1.6693,1.6703,1.6722,1.6755,1.6743,1.6774,1.6775,1.6807,1.681,1.6859,1.6868,1.6872,1.6871,1.6872,1.6871,1.6884,1.6878,1.6872,1.6871,1.6871,1.687,0,1.66,1.6603,1.6658,1.6676,1.6682,1.6719,1.6735,1.6765,1.677,1.6812,1.6822,1.683,1.6867,1.6872,1.6916,1.6917,1.6976,1.6971,1.6968,1.6967,1.7003,1.6999,1.7123,1.7139,1.7036,1.7037,1.7037,0,1.6658,1.6692,1.6714,1.6734,1.6746,1.678,1.6801,1.6799,1.682,1.6848,1.6875,1.691,1.6938,1.6998,1.7008,1.7041,1.7036,1.7078,1.7041,1.704,1.7035,1.7032,1.7035,1.7084,1.7086,1.7087,1.7087,0,1.6758,1.6757,1.6787,1.6816,1.684,1.6864,1.6886,1.6903,1.6904,1.6929,1.6965,1.6987,1.703,1.7065,1.7097,1.7109,1.7098,1.7098,1.7108,1.7109,1.7105,1.7106,1.6985,1.7096,1.7095,1.7094,1.7094,1.7093,1.683,1.6859,1.6878,1.691,1.6926,1.6946,1.6974,1.6982,1.7012,1.7045,1.7042,1.7082,1.7103,1.7144,1.7159,1.719,1.7177,1.7192,1.7195,1.7199,1.7201,1.71,1.7196,1.7196,1.7196,1.7196,1.7196,0,1.6929,1.6939,1.6969,1.6998,1.7024,1.7009,1.7032,1.7054,1.7089,1.7109,1.7136,1.7176,1.721,1.7222,1.7254,1.7277,1.7272,1.7285,1.7283,1.7286,1.7213,1.72,1.7288,1.7288,1.7288,1.7288,1.7288,1.7288,1.6983,1.703,1.7031,1.7086,1.7096,1.7134,1.7148,1.7166,1.7181,1.7226,1.7253,1.726,1.7277,1.7309,1.7339,1.7342,1.7353,1.7368,1.7369,1.73,1.7291,1.7282,1.727,1.7371,1.7371,1.7439,1.7439,1.744]},{"header":{"parameterUnit":"m.s-1","parameterCategory":1,"la1":30.2991,"la2":30.254,"lo1":-89.0895,"lo2":-89.0444,"dy":0.0017,"dx":0.0017,"nx":28,"ny":28,"refTime":"2024-07-15T21:00:00:Z","depth":0,"parameterNumber":3,"parameterNumberName":"V-component_of_WINDS"},"data":[0,0,0,0,0,0,0,0,0,0,0,0,0,0,0,0,0,0,0,0,0,0,0,0,0,0,0,0,0,0,0,0,0,0,0,0,0,0,0,0,0,0,0,0,0,0,0,0,0,0,0,0,0,0,0,0,0,0,5.304,5.304,0,5.3104,5.3104,5.3105,5.3048,5.3045,5.3043,5.3041,5.3099,5.3103,5.3107,0,0,0,0,0,0,0,0,0,0,0,0,0,5.2859,5.2863,5.3039,5.304,5.3041,5.3104,5.3104,5.3105,5.3048,5.3045,5.3042,5.304,5.3098,5.3102,5.3107,0,0,0,0,0,0,0,0,0,0,0,0,0,5.2932,5.2864,5.3039,5.302,5.3019,5.3103,5.3105,5.3106,5.3049,5.3045,5.3042,5.3038,5.3097,5.3102,5.3107,5.3212,0,0,5.3125,5.3127,0,0,0,0,0,0,0,0,5.2928,5.2938,5.3022,5.3022,5.3021,5.3064,5.3062,5.3141,5.3049,5.3037,5.3041,5.3037,5.309,5.3096,5.3115,5.3215,5.3217,5.3125,5.3128,5.3131,5.3132,0,0,0,0,0,0,0,5.2923,5.2935,5.3065,5.3023,5.3023,5.3006,5.3012,5.3077,5.3082,5.3038,5.3034,5.3043,5.3089,5.311,5.3116,5.3218,5.3125,5.313,5.3133,5.3135,5.3403,5.3407,0,0,0,0,0,0,5.2921,5.2931,5.3063,5.3067,5.2965,5.3012,5.3019,5.3054,5.3081,5.3082,5.3046,5.304,5.3102,5.311,5.3118,5.324,5.3131,5.3136,5.3139,5.34,5.3404,5.3408,0,0,0,0,0,0,5.2917,5.2933,5.306,5.2998,5.3013,5.3019,5.3058,5.3057,5.3078,5.3087,5.3087,5.3067,5.31,5.311,5.3189,5.3242,5.3139,5.3144,5.3395,5.3401,5.3406,5.3487,0,0,0,0,0,0,5.2912,5.2932,5.2974,5.2999,5.3017,5.3132,5.3061,5.306,5.3089,5.3082,5.3107,5.3108,5.3098,5.3181,5.3194,5.3247,5.3148,5.339,5.3398,5.3404,5.3479,5.3494,5.3507,0,0,0,0,0,5.2906,5.2993,5.2976,5.2992,5.3069,5.3136,5.3145,5.3134,5.3093,5.3134,5.3139,5.3107,5.3234,5.3189,5.3204,5.326,5.3387,5.3396,5.3404,5.3473,5.3491,5.3507,0,0,0,0,0,0,5.297,5.2996,5.2978,5.3076,5.3104,5.3126,5.3176,5.3154,5.3192,5.3184,5.3166,5.3172,5.3255,5.3265,5.3215,5.3361,5.3304,5.3315,5.3351,5.3369,5.3382,5.3377,5.3153,0,0,0,0,0,5.2996,5.3051,5.3069,5.3154,5.3169,5.3171,5.3199,5.3188,5.3216,5.3227,5.3238,5.3264,5.331,5.334,5.3382,5.3481,5.3484,5.3526,5.354,5.3552,5.3561,5.3612,5.363,5.3436,5.3436,5.3436,0,0,5.305,5.307,5.3105,5.3167,5.3188,5.3242,5.3181,5.3241,5.328,5.3235,5.331,5.332,5.3347,5.3436,5.3476,5.3447,5.3616,5.3563,5.3572,5.3575,5.3623,5.3641,5.3657,5.3442,5.3441,5.344,0,0,5.3174,5.3197,5.3269,5.3292,5.3325,5.3325,5.3342,5.3368,5.3373,5.3449,5.3416,5.3461,5.354,5.3561,5.3581,5.3714,5.3685,5.3728,5.38,5.385,5.3865,5.3879,5.3924,5.3941,5.3738,5.3739,5.3739,0,5.3235,5.3319,5.3308,5.3371,5.3398,5.3362,5.3434,5.3455,5.3499,5.3517,5.3486,5.3584,5.36,5.3692,5.3725,5.3744,5.376,5.3724,5.3865,5.3878,5.389,5.3933,5.395,5.3743,5.3743,5.3742,5.3742,0,5.3391,5.3449,5.3503,5.3549,5.3582,5.3649,5.3646,5.368,5.3666,5.3669,5.3746,5.3764,5.3809,5.383,5.3817,5.392,5.3901,5.3868,5.3809,5.3914,5.3953,5.397,5.375,5.3749,5.3747,5.3746,0,0,5.3557,5.3597,5.3617,5.3637,5.3671,5.3714,5.3778,5.3824,5.3853,5.3884,5.3935,5.4004,5.3973,5.3996,5.3985,5.4029,5.413,5.3989,5.3989,5.4013,5.4242,5.4266,5.4285,5.4112,5.4115,5.4117,5.4239,0,5.3681,5.3795,5.3788,5.3894,5.3945,5.3912,5.3968,5.3993,5.3997,5.404,5.4043,5.4092,5.4048,5.4062,5.4104,5.4109,5.4175,5.41,5.4156,5.4158,5.4149,5.4306,5.4332,5.4446,5.4255,5.4257,5.4259,0,5.3841,5.3881,5.3993,5.4018,5.4039,5.409,5.4131,5.4173,5.42,5.42,5.4227,5.4208,5.4269,5.4211,5.4294,5.4244,5.4266,5.4272,5.4276,5.4279,5.4214,5.4312,5.4483,5.4499,5.4284,5.4282,5.428,0,5.3948,5.4029,5.4106,5.4125,5.4157,5.4192,5.4207,5.4231,5.4259,5.4294,5.4311,5.4353,5.4375,5.4406,5.4397,5.4356,5.4482,5.4423,5.4481,5.4481,5.4507,5.4505,5.4682,5.4525,5.4525,5.4525,5.4524,0,5.4086,5.4156,5.4155,5.4202,5.4278,5.4267,5.4342,5.4351,5.4373,5.4419,5.4393,5.4437,5.4424,5.4466,5.446,5.4528,5.4539,5.4538,5.4535,5.454,5.4539,5.4552,5.4543,5.4529,5.4528,5.4527,5.4527,0,5.4218,5.4221,5.4302,5.4327,5.4334,5.4389,5.4408,5.4451,5.4454,5.4513,5.4526,5.4529,5.4577,5.4573,5.4626,5.4622,5.4706,5.4695,5.4698,5.4695,5.4751,5.4745,5.4941,5.4965,5.4795,5.4797,5.4798,0,5.4305,5.4358,5.4388,5.4419,5.4436,5.4486,5.4515,5.4506,5.4537,5.4571,5.461,5.4656,5.4693,5.4771,5.4777,5.4817,5.4805,5.4871,5.481,5.4813,5.4803,5.4799,5.4804,5.4882,5.4884,5.4885,5.4887,0,5.4459,5.4457,5.4502,5.4546,5.4582,5.4616,5.4647,5.4673,5.4667,5.4702,5.4753,5.4781,5.4837,5.4882,5.4921,5.4932,5.4908,5.4906,5.4921,5.4925,5.4924,5.4923,5.4728,5.4901,5.4899,5.4898,5.4898,5.4897,5.4569,5.4614,5.4642,5.4692,5.4715,5.4744,5.4786,5.4795,5.4837,5.4883,5.4875,5.4931,5.4955,5.5005,5.5021,5.5062,5.5038,5.506,5.5066,5.5071,5.5077,5.4919,5.507,5.5069,5.5069,5.5068,5.5068,0,5.4719,5.4736,5.4782,5.4827,5.4866,5.4843,5.4875,5.4908,5.4959,5.4985,5.5022,5.5079,5.5123,5.5132,5.5174,5.5205,5.5195,5.5216,5.5212,5.5215,5.5097,5.5079,5.5224,5.5224,5.5224,5.5224,5.5224,5.5224,5.4802,5.4876,5.4878,5.4962,5.4978,5.5035,5.5055,5.5081,5.5102,5.5167,5.5205,5.5212,5.523,5.5273,5.5312,5.5313,5.5328,5.5354,5.5351,5.5239,5.5224,5.5209,5.5192,5.5358,5.5358,5.5465,5.5466,5.5467]}]]